Showing default

CELESTIS 17/SHERPA-FX1, 47486

Orbit data source: Space-Track

CELESTIS 17/SHERPA-FX1, 47486 is a payload satellite owned by Spaceflight Ind (US) in SSO that was launched on Sun, 24 Jan 2021 UTC via an FALCON 9 launch vehicle from the Air Force Eastern Test Range (AFETR). Payload-class satellites include a variety of spacecraft equipped with specific instruments for various scientific and technological missions. These include communications satellites like Starlink; space stations such as the ISS; scientific satellites like the Hubble; Earth observation satellites from companies like Planet Labs, Umbra, and HawkEye 360; GPS; miniature CubeSats for education and research; and military/defense satellites.

Loading next visibility...
Identifier
47486, 2021-006CB
Orbit
SSO
Country
Flag of USUS
Related business
Manufacturer
Spaceflight Ind
Mission
Operational Commercial Technology
Bus & Motor
ESPA/SHERPA-FX, Unknown motor
Mass
130 kg wet, 130 kg dry
Launch date (UTC)
2021-01-24 (5 years ago)
Launch vehicle
FALCON 9
Launch site
Air Force Eastern Test Range (AFETR)
Object type
Payload
Rocket body
Debris
Shape & HBR
Cyl, 0.4 m
Radar Cross Section
0.503 m², Medium (>0.1 m² and < 1m²)

Expand to show TLE details & history
Last TLE update: 14 hours ago

TLE from 14 hours ago
0 CELESTIS 17/SHERPA-FX1
1 47486U 21006CB  25352.10705401  .00005289  00000-0  18595-3 0  9998
2 47486  97.2530  32.5274 0008340 117.6187 242.5902 15.29748148271593
Epoch: 2025-12-18T02:34Z
TLE epoch observation values (Epoch: 2025-12-18T02:34:09.466Z)
Latitude
0.00002°
Longitude
-92.97936°
Altitude
482.309 km
Speed
7.623 km/s
True Right ascension
02h 10m 06s
True Declination
0° 00' 00"
Sunlit
Object was in full shadow at epoch
Visualization orbit readout
Latitude
Unknown
Longitude
Unknown
Altitude
Unknown
Speed
Unknown
Apparent Right ascension
Unknown
Apparent Declination
Unknown
Sunlit
N/A
Visualization observer readout
Local Sidereal Time
15:35:54
Azimuth
Unknown
Elevation
Unknown
Doppler factor
Unknown
Orbital elements
Apogee altitude
479.225 km
Perigee altitude
467.797 km
Semi-major axis
6,851.648 km
Eccentricity
0.00083
Inclination
97.253°
RAAN
32.5274°
Arg. of periapsis
117.6187°
True anomaly
242.5054°
Mean anomaly
242.5902°
Eccentric anomaly
242.5478°
Mean motion
3.82693 °/min
Orbital period
94.07 mins
BSTAR
0.00018595
Loading maneuver chart data...
Computing Atmospheric mass density...

Documentation

Showing up to 5 results
|